GFSNIL_sfc_dewp_000.txt.gz
Dewpoint
38 38 36 35 33 36 37 37 38 38 37 36 36 36 35 35 35 35 35 34 35 35
39 38 39 38 37 39 37 37 36 36 34 34 34 34 35 34 34 33 33 33 33 34
38 38 39 37 37 35 35 36 35 33 32 32 33 33 34 33 33 33 33 33 33 33
36 36 36 36 35 34 34 35 34 32 30 29 29 29 30 31 33 33 31 29 27 26
38 36 34 34 32 33 33 33 32 31 29 26 26 26 27 29 28 25 24 24 24 23
37 38 33 30 31 30 30 28 27 27 24 24 25 25 27 25 24 23 22 22 22 22
29 33 32 30 31 34 34 34 27 23 24 26 25 26 24 22 21 21 21 22 22 22
36 34 33 34 34 36 36 34 24 22 23 24 25 23 22 21 21 20 20 21 20 19
36 36 35 34 35 35 35 24 19 21 23 23 22 27 26 23 20 19 19 19 19 20
35 35 35 36 36 35 25 17 19 21 23 23 23 27 27 26 21 20 20 21 20 20
33 33 34 35 33 31 24 20 21 23 24 24 23 27 29 27 25 23 23 22 22 21
33 32 33 33 34 34 26 19 24 25 24 25 26 28 27 27 23 23 21 21 21 20
33 33 33 33 32 30 20 24 24 24 24 24 22 25 23 22 20 16 20 20 20 21
33 32 32 32 26 20 24 24 24 23 23 22 21 22 21 20 20 19 20 18 19 20

GFSNIL_sfc_dewp_006.txt.gz
Dewpoint
35 36 37 38 37 37 36 36 37 36 34 34 36 35 35 33 31 31 29 28 28 30
36 35 36 36 37 37 37 37 37 35 37 37 37 35 34 32 31 31 30 30 30 30
30 31 33 34 34 35 36 36 37 36 37 35 33 32 32 30 30 30 31 31 30 26
30 31 32 32 34 35 34 35 35 33 33 31 31 31 28 26 27 29 29 25 24 23
30 30 30 31 31 32 32 31 32 32 32 32 30 27 25 25 27 25 23 22 22 22
30 31 30 29 28 30 30 30 32 34 32 28 26 24 25 26 25 22 21 22 21 21
30 31 31 31 30 30 31 33 34 31 31 27 24 24 25 23 21 21 22 22 22 22
31 31 31 32 33 33 33 34 32 32 26 22 23 23 22 21 21 21 21 22 22 21
31 32 32 33 33 33 36 33 25 19 22 23 22 29 28 28 27 23 22 24 23 23
31 31 31 32 32 33 31 28 25 23 24 24 27 30 29 29 24 23 22 19 18 17
30 30 31 31 31 31 31 31 22 24 24 26 24 25 26 24 21 20 19 17 18 17
30 30 30 31 30 30 30 27 24 24 23 19 20 22 21 21 21 20 18 18 18 18
29 29 30 30 29 29 22 22 22 22 20 19 19 19 19 19 19 15 18 20 18 19
28 28 28 26 25 21 22 21 22 22 20 18 19 17 18 18 17 17 20 18 18 19

GFSNIL_sfc_dewp_009.txt.gz
Dewpoint
33 30 28 30 30 30 31 33 40 40 38 38 38 37 36 34 33 33 31 31 31 28
30 30 29 31 31 30 34 36 40 39 38 39 37 36 34 33 33 33 33 33 32 31
29 30 31 31 31 32 34 38 40 38 38 36 37 34 34 32 32 31 31 30 32 30
29 31 31 31 31 32 35 36 38 38 35 36 34 33 32 31 29 28 30 31 28 26
30 31 31 31 31 34 33 35 35 34 34 34 34 34 29 28 26 27 27 26 25 24
29 31 31 31 33 33 34 33 33 34 34 33 32 29 26 27 28 26 24 24 24 24
30 31 32 32 33 34 35 35 35 35 34 34 29 24 26 25 24 24 24 24 25 25
31 32 32 33 33 34 36 36 34 31 25 25 25 22 25 23 25 25 25 24 22 21
30 32 32 32 33 34 35 35 29 28 26 26 24 31 30 28 24 21 18 17 16 16
29 31 32 31 30 32 33 34 34 28 27 28 27 27 27 25 18 17 16 15 14 14
28 29 30 30 29 32 33 32 33 28 26 25 23 23 22 22 19 17 15 15 15 15
28 29 29 29 30 30 30 31 29 26 24 18 19 20 20 20 20 19 17 16 16 17
28 29 29 29 28 29 28 21 24 22 19 18 19 18 18 19 21 22 19 18 16 17
29 29 29 28 26 25 23 24 26 23 21 18 18 18 17 19 23 21 19 16 14 17

GFSNIL_sfc_dewp_012.txt.gz
Dewpoint
27 24 23 26 27 25 26 26 32 35 37 39 39 38 38 37 34 32 29 29 27 25
29 29 29 30 30 27 29 26 33 39 39 39 39 38 37 33 31 30 28 28 27 24
28 29 31 31 30 29 30 31 33 36 38 39 39 37 33 30 27 26 26 23 25 25
30 30 30 30 30 29 32 30 31 34 36 37 36 32 32 33 25 24 25 26 25 26
29 29 29 30 29 31 31 32 31 32 33 35 33 32 33 30 23 24 24 25 26 25
27 28 29 30 31 30 31 32 33 32 32 32 32 32 28 25 24 25 26 26 26 25
28 28 30 31 31 31 31 32 32 32 33 34 31 28 24 24 26 26 26 27 26 25
28 29 30 31 30 31 33 32 32 31 29 28 26 22 27 26 27 27 25 24 20 19
28 28 30 29 31 30 30 30 30 31 31 31 24 31 29 25 22 21 20 18 17 17
27 28 28 27 28 27 29 31 30 31 32 31 31 27 24 23 21 20 18 17 16 14
24 25 26 27 27 29 29 29 28 28 30 29 25 22 21 21 22 19 17 17 17 17
25 25 25 26 29 29 28 28 27 27 27 26 24 20 19 20 23 21 20 18 16 16
23 24 25 27 29 29 29 26 24 25 26 21 24 19 18 20 24 25 22 19 15 13
24 26 27 27 28 28 27 26 28 26 26 24 24 23 18 18 25 24 21 20 17 16

GFSNIL_sfc_dewp_015.txt.gz
Dewpoint
28 29 26 27 28 26 26 27 30 31 35 37 36 40 40 40 41 38 33 31 30 27
34 31 30 30 30 27 29 25 29 32 34 35 39 39 40 40 37 36 32 30 29 26
31 30 31 31 30 29 30 30 30 30 31 33 39 39 39 35 32 31 30 25 27 27
30 30 30 30 30 29 31 30 29 30 30 31 32 33 34 32 32 33 28 26 28 27
31 29 29 29 29 30 30 30 29 30 30 29 29 32 31 31 30 29 26 27 28 26
28 29 29 29 30 30 29 29 30 30 29 29 30 30 33 32 27 25 27 28 27 28
27 29 29 29 30 30 29 29 30 30 29 29 27 26 25 24 25 26 27 30 27 24
28 29 28 28 29 29 30 28 28 28 30 32 27 23 28 27 27 27 26 25 21 20
27 27 27 28 30 29 29 27 27 27 28 32 28 31 28 24 24 23 22 21 19 19
26 25 26 25 24 25 28 28 28 27 27 31 31 29 24 23 21 23 22 20 18 16
23 21 22 23 23 26 28 28 27 26 28 28 27 25 22 21 23 24 22 20 19 18
20 22 22 22 24 27 28 28 27 26 25 25 26 24 21 20 24 24 22 21 19 17
20 20 21 23 26 27 28 27 25 24 25 24 27 23 21 20 25 25 24 21 20 18
20 22 25 26 26 27 28 28 30 28 28 28 27 27 22 20 23 25 23 21 20 20

GFSNIL_sfc_dewp_021.txt.gz
Dewpoint
31 32 32 32 31 32 31 31 31 32 32 33 35 39 39 39 39 38 37 35 34 32
33 34 33 32 32 32 31 28 31 32 32 33 33 37 38 38 38 38 38 36 33 31
33 34 33 33 32 31 31 30 31 31 32 32 32 33 38 38 38 35 34 34 31 31
34 36 34 35 31 31 31 31 30 31 31 31 32 32 32 32 32 32 33 33 32 30
35 35 34 32 32 32 31 31 30 30 31 33 32 30 30 31 32 33 30 31 30 29
36 35 33 32 32 32 31 31 30 31 33 33 30 29 31 31 31 30 31 30 29 29
35 34 33 32 32 32 32 31 30 31 32 33 30 30 29 30 29 28 28 29 28 26
36 34 33 33 32 32 32 31 31 31 33 33 32 29 29 27 27 25 25 25 23 22
34 33 33 32 31 32 33 32 32 31 31 31 31 32 30 27 23 23 24 23 22 20
34 32 31 29 29 28 28 29 30 31 31 30 31 32 30 26 20 22 24 22 20 19
30 28 28 28 27 29 30 30 30 30 30 32 30 32 29 25 20 23 24 22 21 20
31 29 30 30 31 31 31 30 30 30 29 31 30 31 27 22 22 25 24 24 23 22
31 31 30 31 32 31 30 29 30 29 29 30 28 30 27 23 25 24 25 24 22 23
32 32 33 31 30 30 30 29 31 29 28 29 27 27 28 26 24 24 25 24 23 23

GFSNIL_sfc_dewp_024.txt.gz
Dewpoint
32 32 32 33 33 33 32 32 32 32 32 33 33 37 38 38 38 37 36 35 34 33
33 34 34 33 33 34 33 31 31 31 31 32 32 31 36 38 37 36 36 35 35 33
34 33 34 34 33 33 33 32 31 31 31 31 31 33 35 37 37 36 33 33 33 31
34 35 35 34 34 34 32 32 31 31 30 30 33 32 31 30 31 32 33 33 32 32
34 35 35 34 33 34 33 32 31 31 30 31 33 31 29 30 31 32 30 30 30 29
34 34 34 33 33 33 33 31 31 30 30 31 33 31 31 31 31 31 30 30 29 29
34 34 34 33 33 33 32 32 30 31 32 33 33 31 31 30 29 28 27 28 27 25
35 35 34 33 32 33 33 31 31 32 32 33 32 31 31 28 27 26 25 25 22 21
37 34 34 32 31 31 31 32 32 32 33 32 31 32 33 29 25 24 23 23 22 20
34 33 32 30 29 29 29 30 31 30 31 31 32 33 33 30 22 22 23 24 20 19
31 31 31 31 33 33 33 31 30 30 31 31 32 33 32 28 21 22 24 23 21 21
32 32 33 34 34 34 32 31 30 30 30 30 31 33 31 25 21 23 24 24 23 22
33 34 35 36 35 33 31 29 30 30 30 31 29 32 31 25 24 24 25 24 23 24
37 36 37 34 32 30 30 29 29 29 30 28 28 28 31 29 24 24 24 25 23 23

GFSNIL_sfc_dewp_030.txt.gz
Dewpoint
48 46 42 35 33 32 33 33 33 35 34 34 38 38 38 38 37 37 36 35 34 34
45 43 38 40 35 34 34 33 34 34 36 35 33 34 36 38 37 37 36 35 34 33
43 43 41 36 36 37 37 33 35 36 34 33 33 34 34 35 37 36 36 34 32 33
41 40 40 38 38 34 34 36 36 34 33 32 32 33 33 35 35 33 31 32 32 32
40 40 37 34 33 34 34 35 33 34 32 32 32 33 32 30 29 30 31 31 31 31
37 33 32 33 33 34 34 34 33 32 32 32 33 33 32 31 30 30 30 31 30 29
34 33 33 34 34 34 34 33 32 33 33 33 33 32 32 31 30 30 30 30 30 29
35 35 35 37 35 35 34 33 32 33 33 33 34 31 32 31 30 29 29 29 28 28
39 39 37 35 35 35 34 33 32 32 33 35 33 33 34 33 30 29 27 26 25 23
40 38 36 34 32 32 32 34 35 36 36 35 33 34 35 35 30 28 27 25 24 22
35 33 34 34 34 35 36 38 38 37 34 32 30 33 34 34 31 27 26 24 24 23
35 35 36 36 37 38 38 38 36 34 33 31 30 32 33 33 29 25 24 23 24 23
37 37 37 38 38 38 37 34 34 30 30 30 29 31 32 33 26 25 25 24 25 29
40 39 39 38 37 37 36 32 29 28 28 28 29 29 32 33 28 26 25 25 25 25

GFSNIL_sfc_dewp_033.txt.gz
Dewpoint
53 52 48 45 45 42 39 35 38 37 39 40 41 41 41 40 40 41 40 39 38 36
54 52 49 46 45 43 39 35 38 39 38 38 38 39 41 38 39 41 42 40 39 38
55 52 51 48 45 41 39 36 38 38 37 36 36 36 37 37 38 39 40 39 38 37
54 52 50 46 45 42 40 37 36 37 36 35 36 35 36 36 36 38 39 38 35 35
51 49 47 46 44 43 38 37 36 36 34 33 34 35 35 35 34 37 36 33 34 33
47 47 46 45 44 40 37 37 36 34 34 34 35 34 34 34 34 33 33 33 33 33
45 45 45 42 38 37 36 35 35 35 34 34 33 33 36 38 34 34 33 34 34 33
41 39 39 38 38 37 37 35 35 35 35 34 35 37 40 36 34 34 33 34 32 33
39 37 39 39 38 37 36 35 34 33 35 37 39 38 36 35 34 33 33 32 32 31
39 38 39 38 35 34 35 36 38 39 40 40 40 35 35 34 32 33 33 32 31 29
37 35 34 35 36 38 40 40 40 40 40 38 34 35 34 33 32 32 32 32 31 30
35 36 38 38 39 39 40 40 39 38 37 37 38 34 33 32 32 32 32 31 30 29
37 38 39 39 40 39 39 38 37 36 36 35 32 32 32 32 33 33 32 31 28 29
39 39 39 39 38 38 38 36 36 33 33 32 32 31 32 32 32 33 31 30 29 29

GFSNIL_sfc_dewp_036.txt.gz
Dewpoint
60 59 56 55 50 46 45 44 45 42 41 40 43 42 43 39 43 40 38 39 37 32
59 58 56 54 49 47 47 45 43 42 41 42 41 42 40 39 39 38 41 40 38 35
58 57 57 55 51 50 49 46 42 42 40 41 41 39 39 39 37 39 40 36 36 35
59 58 58 56 53 52 50 46 42 41 40 38 38 36 37 35 36 36 35 36 35 33
58 58 57 55 53 52 48 46 42 41 38 38 35 34 34 35 31 35 36 34 35 33
56 55 55 53 51 49 48 46 43 39 36 35 35 34 35 34 36 39 37 33 32 32
53 51 51 50 49 49 48 45 41 38 37 37 33 33 35 40 42 40 35 34 34 33
51 50 50 49 47 45 43 39 37 37 37 37 36 36 42 42 40 40 37 35 33 34
44 44 43 41 40 39 38 36 36 36 36 36 38 39 38 38 39 39 34 33 34 34
41 40 40 37 36 35 35 37 38 39 38 39 38 38 38 37 35 37 35 33 32 30
39 38 37 36 36 38 40 40 40 39 38 38 39 38 37 36 39 35 33 32 31 31
38 37 38 39 40 40 40 40 39 39 39 39 38 37 37 34 33 30 30 29 30 30
38 38 38 39 40 40 40 39 38 37 37 36 38 35 34 33 32 31 32 31 30 31
39 39 40 40 39 38 37 35 35 34 34 33 33 33 34 33 33 33 33 31 31 31

GFSNIL_sfc_dewp_039.txt.gz
Dewpoint
59 58 60 60 59 57 55 52 50 48 47 46 46 45 47 46 45 44 43 40 42 37
60 59 60 60 59 57 52 48 48 47 45 46 45 46 46 45 43 43 44 44 42 39
59 60 60 59 58 55 51 49 48 47 45 46 45 43 44 40 41 41 41 40 39 39
57 58 59 59 57 53 51 49 48 46 45 44 44 44 41 40 39 38 41 38 40 39
58 58 59 58 57 55 53 51 50 46 44 44 42 40 38 37 36 35 38 39 42 40
59 59 58 58 57 54 53 51 48 44 44 42 40 37 37 38 39 40 42 42 40 37
56 56 56 54 53 52 51 50 48 46 42 41 36 37 38 41 42 42 40 41 38 37
55 53 53 51 51 50 50 48 42 41 39 39 39 39 40 41 41 40 40 41 40 39
50 49 49 48 47 46 42 40 39 38 39 39 37 39 40 39 39 40 39 40 39 37
44 43 43 40 38 38 37 38 38 39 39 39 40 39 39 37 39 39 38 38 39 35
42 40 38 37 37 37 39 39 39 39 39 39 38 38 38 37 38 38 38 36 32 32
40 39 39 39 40 40 39 39 39 39 39 39 40 38 37 37 36 33 32 30 29 29
39 39 39 40 39 40 40 39 39 39 39 38 38 37 37 35 33 32 32 31 31 31
39 39 39 39 39 39 38 36 36 34 34 31 31 32 34 33 33 33 32 31 32 33

GFSNIL_sfc_dewp_042.txt.gz
Dewpoint
60 59 60 59 59 57 56 57 57 55 51 49 48 48 48 49 48 46 44 44 41 39
60 59 59 59 59 58 57 56 53 51 49 48 49 47 47 46 46 44 43 42 40 41
61 59 58 59 59 58 56 51 51 50 48 47 47 46 46 46 44 42 42 40 42 40
60 59 60 60 60 59 52 51 49 49 47 45 46 45 44 43 42 40 41 42 43 43
60 58 58 58 58 55 52 51 49 48 46 45 45 45 44 42 36 40 40 42 43 44
57 58 58 58 57 54 52 51 50 48 45 44 45 43 40 39 42 42 43 43 43 42
58 57 56 55 54 53 53 51 48 46 45 44 40 39 39 42 42 41 42 42 41 41
56 55 54 53 53 51 51 50 47 43 41 39 39 40 42 41 41 40 41 41 40 40
55 53 54 53 52 49 46 42 40 39 39 39 39 39 39 40 40 40 39 38 39 40
50 49 47 44 42 41 40 40 39 39 40 39 39 39 39 38 38 38 38 37 38 38
44 42 40 39 38 39 39 39 40 39 39 39 38 38 38 37 38 38 38 38 38 35
41 39 39 39 39 39 39 39 39 38 39 40 39 38 37 37 37 36 33 33 32 32
40 40 40 41 42 41 41 40 39 40 40 39 39 37 37 35 33 31 30 31 30 31
40 40 40 40 40 40 39 39 38 37 35 35 33 32 31 29 28 26 26 26 26 26

GFSNIL_sfc_dewp_045.txt.gz
Dewpoint
57 56 57 57 57 57 57 57 55 55 54 55 53 51 48 50 49 48 47 44 43 40
58 57 57 57 57 58 57 55 55 54 52 51 51 48 48 49 48 46 44 43 41 40
58 58 58 58 57 56 55 53 53 52 51 49 48 47 47 46 46 44 44 42 40 41
59 58 58 57 57 57 53 51 51 50 48 47 46 47 46 46 44 42 42 43 43 44
60 59 58 58 58 57 53 51 50 49 48 47 46 45 45 43 42 43 43 43 43 43
59 59 59 58 56 53 52 51 50 49 48 46 46 44 44 41 42 42 43 43 43 42
57 57 56 55 54 53 52 50 50 48 47 46 44 42 41 42 42 42 42 43 42 42
54 54 53 53 53 52 51 50 47 45 44 42 40 41 42 42 41 40 40 41 41 41
54 53 53 52 51 50 48 45 43 41 41 40 40 39 40 40 40 39 39 39 39 39
53 52 50 46 44 42 41 40 40 40 40 40 40 39 39 38 39 39 39 39 38 38
46 43 41 41 40 39 39 39 37 38 39 39 38 38 38 36 38 38 39 38 37 34
40 39 38 38 38 38 38 38 38 38 37 37 37 37 37 38 38 36 32 32 30 30
39 38 39 39 38 39 38 38 39 39 40 39 38 37 37 35 30 28 26 26 27 29
41 40 40 40 40 40 39 38 38 36 36 33 30 29 29 27 24 25 25 25 24 24

GFSNIL_sfc_dewp_048.txt.gz
Dewpoint
54 56 55 53 55 56 56 56 58 57 55 54 54 52 50 50 50 48 48 46 46 45
55 56 55 56 56 57 57 56 55 56 54 53 53 51 48 49 48 48 47 46 44 41
54 55 56 56 56 57 57 55 54 54 53 52 51 50 48 48 48 47 46 44 41 43
55 56 58 57 57 57 56 55 54 53 52 51 50 49 47 47 46 45 43 43 44 44
58 58 58 58 58 57 56 54 54 52 50 50 48 48 46 46 45 43 43 44 44 43
58 58 58 59 60 60 55 53 53 52 50 48 48 46 46 45 44 43 43 43 43 43
58 58 59 59 59 57 54 52 51 51 50 49 47 46 44 43 43 43 43 43 43 42
59 59 58 57 54 53 52 52 50 49 48 46 45 43 42 42 42 42 42 42 41 42
57 57 55 54 53 52 50 49 47 47 44 42 41 39 40 41 41 41 40 40 41 40
55 55 53 52 50 48 47 46 43 42 42 41 41 39 39 38 39 39 39 39 39 38
52 50 49 48 45 44 44 44 42 41 41 41 40 38 38 37 38 38 38 37 34 32
47 45 44 43 43 41 40 39 38 38 38 38 38 37 36 37 38 34 32 29 29 28
42 41 39 39 38 38 38 37 37 37 36 36 37 37 37 35 32 28 25 25 25 26
39 39 38 38 37 37 37 37 37 35 33 32 33 32 32 30 25 25 25 23 23 23

GFSNIL_sfc_dewp_051.txt.gz
Dewpoint
50 52 54 53 53 52 53 54 56 57 57 57 57 57 55 54 53 51 48 48 47 47
49 51 53 55 54 53 54 55 55 57 57 57 56 55 53 52 50 49 48 48 47 45
50 52 53 54 56 55 55 55 55 56 55 54 54 52 50 48 49 48 48 47 45 43
50 53 54 55 55 56 56 57 56 55 55 54 52 51 49 48 48 48 46 45 44 43
52 53 54 56 57 57 57 57 56 56 55 54 53 51 49 48 47 47 45 44 43 43
53 55 55 57 57 58 57 57 57 55 53 52 51 50 48 48 46 45 44 44 43 44
53 55 57 57 58 58 58 57 54 53 53 53 50 49 48 48 46 44 43 44 44 44
54 56 57 57 57 58 57 55 53 51 51 49 49 48 47 45 44 43 43 43 43 42
55 57 57 57 58 56 54 53 52 51 50 48 48 41 41 42 42 42 42 41 41 41
57 57 57 56 53 53 51 50 48 46 47 46 43 39 40 40 41 41 40 40 40 38
57 56 54 52 51 48 47 46 45 44 43 44 41 39 38 37 39 39 39 38 37 31
53 51 50 48 47 45 44 43 43 42 43 41 39 37 37 37 38 34 31 30 29 29
49 48 46 45 43 43 42 41 39 38 39 39 38 37 37 36 33 29 27 25 24 26
44 44 42 40 40 39 38 37 35 32 33 34 36 36 35 33 30 28 25 23 22 22

GFSNIL_sfc_dewp_057.txt.gz
Dewpoint
54 53 53 53 52 53 51 51 54 55 55 56 56 56 57 58 58 58 58 57 54 53
52 52 52 53 54 53 53 53 54 54 55 55 55 56 56 57 57 58 57 56 56 54
52 51 52 52 53 53 54 54 54 54 54 54 55 55 56 57 58 57 57 56 55 54
52 52 53 52 53 53 54 54 53 53 53 54 55 56 57 57 57 56 56 56 55 55
53 53 53 53 53 54 54 55 54 54 54 55 56 56 57 56 56 55 54 54 53 53
52 52 51 51 52 53 53 54 55 56 56 55 56 55 55 55 55 54 54 53 51 51
52 52 51 52 52 52 53 53 54 55 56 57 56 56 55 54 54 54 52 52 52 50
52 52 52 52 53 53 54 53 54 55 55 56 56 56 56 55 54 52 51 50 49 48
51 51 52 52 53 54 54 55 55 56 55 56 56 49 46 51 53 52 50 47 46 45
51 51 52 52 52 53 54 55 56 56 56 56 56 45 45 44 52 49 47 45 44 42
52 52 51 51 52 54 55 56 55 55 55 55 53 44 44 42 46 44 43 42 41 38
53 53 53 54 54 55 54 51 48 48 47 46 42 41 39 41 41 39 37 37 36 34
53 54 55 54 52 47 47 44 43 41 42 39 39 38 38 38 36 33 32 31 31 32
51 49 47 45 44 42 40 38 35 34 36 38 38 37 36 36 34 31 30 29 27 27

GFSNIL_sfc_dewp_060.txt.gz
Dewpoint
57 55 53 54 54 53 53 53 55 55 55 54 54 55 56 56 55 57 57 58 58 56
56 56 55 54 54 54 55 52 53 54 55 55 54 55 55 56 55 57 58 57 57 57
56 55 55 55 55 54 55 54 53 53 54 54 54 54 54 56 56 56 57 56 56 57
54 54 55 54 55 55 56 55 54 54 53 52 53 53 54 54 54 54 55 57 58 57
55 54 54 55 54 57 56 56 55 55 55 54 54 55 54 55 53 54 55 56 57 56
55 55 55 55 55 55 55 55 54 54 55 55 55 54 55 54 55 56 56 56 56 56
54 55 55 55 55 55 54 53 53 54 54 55 54 53 54 54 56 56 56 54 55 55
54 54 53 54 54 54 54 54 53 54 54 55 54 54 56 55 56 55 55 56 54 54
52 52 53 52 53 53 53 53 53 53 53 54 54 48 46 52 57 56 55 54 53 53
51 51 52 52 52 52 53 54 53 54 54 55 56 47 45 45 56 55 55 54 52 48
51 51 52 52 52 53 54 54 55 55 55 55 55 46 45 44 53 55 53 50 47 45
52 51 51 52 53 53 54 55 56 55 56 56 56 44 43 43 45 42 40 41 40 39
52 52 52 53 54 55 55 54 49 43 43 40 43 39 41 43 40 36 34 34 35 34
52 53 54 54 52 48 43 39 37 35 36 37 38 37 37 37 35 33 32 31 31 32

GFSNIL_sfc_dewp_066.txt.gz
Dewpoint
55 54 54 55 52 53 53 52 52 56 57 57 56 57 57 56 56 56 57 56 56 56
56 54 54 55 55 54 53 53 54 57 57 58 58 56 54 54 54 55 55 55 56 55
56 56 55 54 54 54 54 53 52 55 57 57 57 56 55 55 53 53 54 54 54 55
56 56 56 55 55 54 54 54 53 53 55 56 56 56 55 54 53 53 52 52 53 54
55 56 57 57 56 56 55 55 54 54 54 55 55 55 55 55 53 53 52 52 52 52
56 55 56 57 57 56 56 56 55 54 54 54 55 54 54 53 52 51 51 52 52 53
56 56 56 56 57 57 57 56 55 55 54 54 53 53 53 53 52 52 52 52 53 53
55 57 57 57 57 57 57 56 56 55 55 55 54 53 53 52 52 52 52 53 53 53
53 55 55 56 57 57 57 56 56 55 55 55 53 48 45 49 53 53 53 53 54 54
53 52 54 55 55 55 55 56 55 55 55 55 55 46 44 43 53 54 54 54 54 54
53 53 53 54 54 55 55 55 55 55 55 55 55 45 44 41 50 53 53 53 53 53
53 53 53 53 53 54 55 55 55 55 55 55 54 39 41 43 51 52 43 38 38 40
50 52 52 53 54 55 55 54 53 43 40 37 39 37 40 43 44 37 34 33 34 35
43 46 49 52 51 52 44 39 36 34 34 34 35 36 37 38 36 33 32 31 31 32

GFSNIL_sfc_dewp_069.txt.gz
Dewpoint
54 54 53 52 53 54 54 53 53 56 57 57 55 56 57 57 56 57 57 56 57 57
54 54 54 53 52 53 53 53 53 53 57 57 56 55 56 56 55 56 56 56 56 56
55 54 54 54 53 52 52 53 52 52 55 56 56 56 55 55 55 54 55 54 54 53
55 55 54 54 55 54 53 53 53 52 54 55 55 56 56 55 54 53 52 52 52 53
56 56 55 54 54 55 54 54 53 52 53 53 54 54 54 54 54 53 52 52 51 52
55 56 55 56 56 55 55 54 54 54 52 52 54 54 54 54 53 53 53 52 52 51
54 54 55 55 55 56 55 55 54 54 53 53 53 54 54 54 54 54 54 53 53 52
55 55 55 55 55 56 56 55 55 55 54 53 53 53 54 54 54 54 54 54 53 52
55 55 55 55 55 55 57 56 56 56 55 55 53 48 45 51 54 53 53 52 52 52
54 55 55 56 55 55 55 57 56 56 56 55 55 46 44 43 52 53 52 52 52 52
47 49 52 55 56 56 56 56 56 56 56 56 55 46 45 42 50 53 53 53 54 54
42 43 47 51 54 55 55 55 55 55 55 55 55 38 40 43 50 52 46 39 39 42
37 39 40 44 45 54 55 55 54 41 39 39 39 36 38 43 46 38 34 33 34 35
33 34 35 39 41 43 45 42 38 34 33 34 34 35 36 38 37 34 32 32 31 32

GFSNIL_sfc_dewp_072.txt.gz
Dewpoint
54 53 53 54 54 53 54 54 54 55 55 57 55 55 57 56 55 55 55 55 55 55
55 54 53 52 54 54 54 54 54 55 56 56 56 56 56 55 55 56 55 55 55 55
55 55 54 53 52 53 54 54 54 53 55 56 56 55 55 55 55 55 55 55 54 54
55 54 55 54 53 52 53 53 53 53 53 55 56 56 55 54 54 54 54 54 53 53
55 55 54 54 54 54 52 52 53 53 53 52 53 54 55 55 54 54 53 53 53 53
55 55 55 55 54 55 55 53 52 52 52 52 53 53 54 54 54 53 53 53 53 52
54 54 55 55 55 55 55 55 54 54 53 53 52 52 53 54 53 53 53 53 53 52
55 54 55 55 55 55 56 55 55 54 54 54 53 52 52 52 53 53 53 53 53 53
55 55 54 55 55 55 55 55 55 55 54 54 53 48 45 49 53 53 54 53 53 54
46 47 52 55 55 54 54 55 55 55 54 54 54 46 44 43 51 53 54 54 54 54
41 42 44 46 49 55 55 55 55 56 56 55 55 46 45 43 51 53 53 54 54 54
37 38 40 41 43 45 47 55 55 56 56 56 56 38 40 43 52 52 53 52 43 44
33 35 35 38 39 40 43 45 44 36 35 34 36 35 36 38 48 50 40 34 34 35
30 30 31 33 35 36 35 33 32 30 30 30 31 32 34 35 36 35 33 32 31 32

GFSNIL_sfc_dewp_075.txt.gz
Dewpoint
54 55 54 55 55 56 56 56 56 56 57 57 57 57 57 57 56 56 55 54 53 54
54 54 53 54 54 55 55 55 55 54 55 56 56 56 57 56 55 56 56 55 54 53
54 54 53 53 53 54 54 54 54 54 55 55 56 56 56 55 55 55 55 54 54 54
54 55 54 53 52 53 54 54 54 54 54 55 55 55 54 54 54 55 54 54 54 53
55 55 55 54 53 52 53 54 54 54 54 54 55 55 54 54 54 54 53 54 54 54
54 54 54 54 55 54 53 52 53 53 53 53 53 54 55 55 54 54 54 54 54 53
54 54 54 54 54 54 55 54 53 53 53 53 52 52 52 53 54 54 54 54 54 53
54 54 54 54 54 54 54 55 55 54 53 53 53 52 52 52 52 52 53 53 53 53
46 50 55 54 54 55 55 55 54 54 54 54 53 47 45 49 52 52 52 52 52 53
42 43 44 45 49 54 55 55 55 55 55 54 54 46 44 44 52 52 52 52 53 53
37 39 40 42 43 43 45 48 54 55 55 55 54 37 40 43 51 53 53 53 53 54
34 35 36 37 38 39 42 41 40 37 36 39 36 34 35 37 48 52 53 53 45 39
30 31 32 34 35 36 36 33 31 30 30 31 31 34 35 36 40 44 45 35 34 34
28 29 30 31 32 33 32 31 30 29 29 29 31 31 33 34 34 33 32 31 30 31

GFSNIL_sfc_dewp_078.txt.gz
Dewpoint
53 54 54 55 56 57 57 57 57 58 57 56 57 58 57 56 56 56 55 55 53 52
53 54 54 55 55 56 56 56 57 57 58 57 57 57 57 57 57 56 56 55 55 55
54 54 54 53 54 55 55 55 54 55 56 57 57 57 57 56 57 57 56 56 55 55
55 54 53 53 53 53 54 55 55 55 55 56 56 56 56 56 56 55 55 55 55 54
55 55 53 53 53 54 53 54 54 54 54 55 55 55 55 55 55 55 54 54 54 54
54 55 54 54 54 53 53 53 54 54 53 54 55 55 55 54 54 54 54 54 54 54
54 54 53 53 54 54 53 53 53 53 53 53 53 53 54 54 54 54 54 54 54 54
53 55 54 54 54 54 54 54 53 53 53 53 53 53 53 53 53 54 54 54 54 54
45 46 46 49 53 55 55 55 55 55 54 53 53 47 45 49 52 52 52 52 53 53
40 40 42 43 44 45 46 47 52 53 55 55 54 36 38 41 52 52 52 52 52 52
36 36 38 38 39 40 42 39 38 37 38 41 36 35 36 35 42 51 53 53 52 45
32 34 35 36 36 36 35 34 32 32 33 33 33 34 35 36 42 47 39 34 33 33
30 31 32 33 34 33 32 31 30 29 30 31 30 33 34 36 40 34 32 31 31 32
28 29 30 31 31 31 31 30 29 28 28 28 30 30 31 32 32 31 28 28 28 29

GFSNIL_sfc_dewp_084.txt.gz
Dewpoint
56 56 56 58 58 58 58 58 58 57 57 56 57 57 58 57 57 57 58 57 57 56
56 56 56 57 57 58 59 59 59 58 57 56 56 56 57 57 56 57 57 58 58 56
56 56 56 56 57 57 58 58 59 59 58 56 56 56 56 55 56 56 56 56 56 56
56 56 56 56 56 56 57 57 58 58 57 56 55 55 54 52 53 55 56 57 56 55
57 56 56 55 56 57 57 57 57 58 57 57 56 55 53 51 51 51 51 53 56 55
55 55 55 55 56 57 56 56 56 56 57 57 57 56 54 53 53 53 54 53 52 51
54 55 55 55 56 55 55 55 55 56 55 56 57 57 56 55 55 54 55 55 55 54
49 52 54 55 56 56 56 55 55 55 56 56 56 43 45 56 57 57 57 57 57 58
44 44 45 46 47 47 47 45 46 46 47 41 38 36 37 41 54 56 55 55 56 56
40 40 41 41 40 39 39 39 39 39 38 36 35 35 36 36 44 49 41 40 40 42
37 37 37 37 36 35 35 34 35 34 34 34 33 35 37 37 39 35 34 33 34 34
35 35 35 33 33 32 32 32 31 31 31 31 32 33 36 35 33 30 30 30 31 31
34 34 33 33 32 32 31 30 30 29 30 31 30 31 33 32 31 29 29 29 30 30
31 31 32 32 32 32 31 31 31 30 30 29 30 29 30 32 30 29 29 29 29 29

GFSNIL_sfc_dewp_087.txt.gz
Dewpoint
56 55 55 58 59 59 58 58 57 57 57 57 58 58 59 59 59 60 59 58 58 56
57 56 55 58 60 59 59 58 58 58 56 57 57 57 57 57 57 58 59 59 58 57
56 56 56 57 58 59 60 59 59 57 57 56 57 57 57 57 57 57 58 58 57 57
56 57 57 57 58 57 58 57 58 58 57 56 56 56 56 55 55 54 55 57 57 56
56 57 56 56 56 57 56 57 58 58 58 56 55 55 54 54 53 53 54 55 55 55
56 56 55 55 56 58 57 57 57 58 58 57 56 55 54 53 52 52 52 52 53 54
55 55 56 55 57 56 56 57 56 56 57 57 57 56 55 53 52 51 51 51 52 53
51 54 54 53 52 54 53 53 54 56 56 53 43 39 43 52 55 54 54 54 54 54
45 46 45 44 44 44 43 43 43 42 41 40 37 36 37 41 52 52 51 52 50 48
40 40 39 39 38 38 38 37 37 37 37 35 36 36 38 39 43 39 38 38 38 38
37 36 36 35 34 34 34 34 34 34 34 34 34 36 35 34 34 33 32 32 32 33
35 34 34 33 32 32 32 31 31 32 32 32 33 34 34 33 32 30 30 30 31 31
35 34 33 33 33 32 32 30 30 30 31 31 30 33 33 32 31 29 29 29 29 30
34 34 34 34 34 34 33 32 31 30 30 29 30 30 31 33 31 30 29 28 28 29

GFSNIL_sfc_dewp_090.txt.gz
Dewpoint
59 58 57 59 58 59 58 58 57 57 57 58 59 59 59 59 59 58 58 59 57 55
59 57 57 59 59 59 58 57 57 57 57 57 58 58 59 59 57 58 58 59 58 57
58 58 59 59 59 59 59 58 57 57 57 57 57 57 58 58 58 58 59 59 58 56
57 57 58 58 59 59 60 59 58 57 57 56 56 57 57 57 57 56 56 57 57 56
57 57 57 58 58 58 58 59 58 58 57 56 56 56 55 55 55 55 54 55 55 55
57 57 57 57 57 57 57 57 58 58 57 56 55 55 55 54 53 53 53 53 54 54
57 57 56 57 58 57 57 57 58 58 57 57 55 55 54 53 54 53 54 54 53 54
51 52 51 50 51 50 50 47 47 46 44 42 41 39 44 53 53 51 51 51 51 51
45 44 44 43 43 42 41 41 40 39 39 39 39 37 38 44 47 47 47 46 46 42
39 38 39 37 37 37 37 36 36 37 37 36 36 36 38 38 38 37 37 36 37 37
36 35 35 34 34 34 34 34 33 33 34 34 34 35 34 33 33 32 32 32 33 33
34 33 33 32 32 32 32 32 32 32 32 32 33 34 33 32 31 30 30 31 32 32
34 34 33 33 33 32 31 30 30 29 30 31 31 34 33 31 30 29 28 29 30 32
33 33 34 34 34 33 32 31 30 28 28 28 29 30 33 32 29 28 27 27 27 28

GFSNIL_sfc_dewp_093.txt.gz
Dewpoint
58 57 57 58 58 56 56 57 57 56 57 58 58 60 60 60 60 59 59 58 58 57
59 57 58 58 58 57 58 57 56 56 57 57 58 59 59 59 59 59 58 58 58 58
58 58 58 58 57 58 58 57 57 56 56 57 57 58 58 58 59 59 58 58 58 58
57 59 58 58 58 58 58 57 56 56 56 56 57 57 57 57 58 57 57 58 58 57
57 57 58 59 59 59 58 58 57 56 56 56 56 57 56 56 56 57 57 57 57 56
57 57 57 58 57 58 59 59 58 57 56 55 56 56 55 55 55 55 55 55 55 55
57 57 56 57 57 57 56 57 57 56 56 55 55 55 55 54 54 54 54 54 54 54
50 50 49 49 48 47 46 46 46 45 44 44 43 41 48 54 54 53 54 54 52 46
44 43 43 42 42 41 40 40 40 40 40 40 39 38 40 47 46 46 49 45 43 40
39 38 38 37 37 37 37 37 37 36 36 35 36 37 37 37 37 37 37 38 39 38
35 35 35 34 34 34 34 34 34 34 34 34 34 34 34 34 33 33 33 34 35 37
33 33 33 32 32 32 32 31 31 32 33 33 33 33 33 31 31 30 31 32 33 33
34 33 32 32 32 31 30 30 29 29 31 32 32 33 32 31 29 28 29 30 31 33
32 32 33 33 32 31 30 29 28 28 29 29 31 32 32 32 29 28 27 28 29 30

GFSNIL_sfc_dewp_096.txt.gz
Dewpoint
59 58 58 58 58 59 59 59 58 58 59 59 60 60 60 60 60 59 59 58 58 57
59 57 57 58 58 57 56 55 55 56 56 57 57 58 59 60 59 60 59 58 58 57
58 58 58 58 57 57 56 56 55 55 55 56 57 58 59 59 59 59 59 59 58 57
58 58 58 58 57 57 57 57 56 56 55 55 56 57 57 58 58 58 58 58 58 57
59 58 58 58 57 57 57 57 56 56 56 55 56 57 56 56 57 57 57 58 58 57
58 58 58 58 58 58 58 57 57 56 55 55 56 56 55 56 55 56 57 57 57 57
56 56 56 55 54 55 57 58 57 56 56 55 55 55 55 55 55 54 55 55 55 56
51 51 50 48 47 47 46 46 47 47 45 45 44 43 50 54 53 53 53 49 46 44
43 43 43 42 42 41 41 41 40 39 39 39 39 37 41 48 49 50 48 43 41 39
38 37 37 38 37 37 37 37 36 36 35 35 35 36 37 38 39 39 39 40 39 37
34 33 33 33 33 34 34 34 34 34 34 33 34 34 34 34 35 34 34 35 38 35
32 32 32 31 31 31 31 31 32 32 32 32 32 33 33 32 32 32 32 33 33 33
33 32 31 30 30 30 30 29 29 30 31 32 31 32 32 31 30 30 30 31 32 33
30 32 32 32 31 30 29 28 28 28 29 30 30 31 31 31 29 29 28 29 30 31

GFSNIL_sfc_dewp_099.txt.gz
Dewpoint
59 59 59 59 59 58 58 58 58 59 59 59 60 59 59 60 60 60 59 59 58 57
59 59 59 58 58 58 58 59 59 59 59 59 59 59 59 60 60 60 59 59 59 57
59 59 58 58 58 58 57 57 57 56 54 55 55 55 57 57 58 59 59 59 58 58
59 58 58 58 57 57 56 56 55 54 53 54 53 56 56 57 57 58 58 58 58 58
59 59 58 57 57 57 56 56 56 55 55 55 55 55 55 56 57 57 57 58 58 57
58 58 58 57 57 57 57 55 56 56 55 55 55 55 55 56 56 56 56 57 57 57
58 58 57 58 58 58 56 57 56 56 55 55 55 55 55 55 54 54 54 55 56 57
51 52 52 50 50 49 49 50 50 48 45 44 43 41 43 53 54 53 49 45 44 43
41 44 43 42 43 43 41 41 40 39 39 38 37 37 39 46 50 48 46 43 41 39
35 36 36 36 36 36 37 37 36 36 35 34 35 36 37 37 39 39 39 40 38 37
33 32 32 32 32 33 33 34 34 33 33 33 34 34 35 35 35 34 34 35 35 34
32 32 31 30 30 31 31 31 31 31 32 32 32 33 33 33 32 32 32 33 33 33
32 31 30 30 30 30 30 29 30 30 30 32 31 33 32 32 31 30 30 31 32 33
28 30 30 30 29 29 29 28 28 28 29 30 31 31 32 31 30 29 28 28 29 31

GFSNIL_sfc_dewp_102.txt.gz
Dewpoint
63 60 60 61 61 60 60 60 60 60 61 61 60 60 60 59 59 59 59 58 59 58
60 59 59 59 60 59 59 58 59 59 59 59 59 59 59 59 59 59 59 59 59 59
60 60 59 59 58 58 58 58 58 57 57 57 58 59 59 58 59 59 59 59 59 58
59 59 59 58 58 58 58 58 57 57 57 57 56 56 55 55 55 56 57 58 58 58
58 58 58 58 58 58 57 57 56 56 55 55 55 55 55 54 56 56 56 56 57 57
57 58 57 57 57 57 57 56 56 55 55 55 55 55 55 55 55 56 56 56 57 57
50 57 57 58 57 57 57 56 55 56 55 55 54 54 55 55 55 54 52 51 52 54
39 43 50 52 55 55 54 53 51 48 46 45 44 42 45 52 54 51 46 44 42 40
34 36 37 41 43 42 41 41 41 39 39 38 38 37 39 45 47 45 43 41 39 38
34 32 33 34 36 36 36 36 35 35 35 35 35 37 38 38 39 38 37 37 37 36
33 33 32 32 31 32 32 32 33 32 33 33 34 35 35 35 35 34 34 34 34 34
31 31 31 30 30 30 30 30 30 31 31 32 33 34 34 33 32 32 32 33 33 32
29 29 28 29 29 30 30 29 30 30 30 31 31 33 33 32 31 30 30 31 31 32
27 27 28 28 28 28 28 28 28 28 28 29 30 31 32 31 30 29 28 28 29 30

GFSNIL_sfc_dewp_105.txt.gz
Dewpoint
62 63 63 63 63 62 61 61 63 63 63 63 63 62 63 63 62 61 60 60 60 59
63 62 62 63 64 63 62 62 62 63 62 62 61 62 62 61 61 62 60 60 60 59
63 62 61 62 62 62 62 62 61 61 61 61 61 61 61 60 61 59 59 59 59 59
60 61 60 60 61 61 61 60 60 60 60 60 60 60 60 60 59 59 59 59 59 59
59 59 59 59 59 59 59 60 59 59 58 59 58 59 58 57 57 57 57 57 58 58
48 56 59 59 58 58 58 58 58 58 57 57 56 56 56 56 56 57 57 57 57 57
40 42 48 58 58 58 58 57 57 57 56 56 55 55 55 55 56 56 55 51 48 46
36 37 38 42 47 57 57 56 56 53 49 48 48 45 53 55 56 51 47 45 42 40
36 34 34 35 37 39 40 41 41 40 39 39 39 37 39 46 49 46 44 42 40 39
34 35 33 32 33 34 34 35 35 35 35 35 36 36 38 39 41 39 39 39 39 37
31 33 34 33 31 31 32 32 32 33 33 34 34 35 35 35 35 34 34 35 35 35
29 29 31 31 31 31 30 31 31 31 31 32 33 34 34 33 32 32 32 32 33 32
28 28 28 28 29 30 29 28 28 28 29 31 31 33 32 32 31 30 30 30 31 31
28 28 29 29 30 30 29 28 27 26 27 27 28 30 31 30 29 28 27 27 28 29

GFSNIL_sfc_dewp_108.txt.gz
Dewpoint
48 51 57 61 60 61 62 62 63 64 64 64 65 65 65 64 64 64 64 62 62 61
48 52 59 62 62 62 63 63 63 64 63 64 64 64 64 64 63 63 63 63 62 61
47 52 61 62 62 62 64 63 63 64 63 63 63 62 63 63 62 62 62 62 62 60
50 61 61 62 63 63 63 63 63 62 62 62 62 62 62 62 61 61 61 61 61 59
48 54 60 61 62 63 62 62 61 61 61 61 61 61 61 61 60 60 60 60 59 59
43 45 49 59 60 61 60 60 60 60 60 60 60 60 60 59 59 59 59 59 59 58
39 41 43 46 52 59 59 59 59 59 59 59 59 59 58 57 57 57 57 57 56 53
37 37 37 39 40 43 49 56 58 57 57 54 55 53 57 57 57 55 52 50 46 45
35 35 35 35 36 36 37 39 41 42 43 42 40 39 40 53 55 50 47 44 43 41
32 33 34 33 32 33 33 35 35 35 36 36 37 37 38 39 42 41 40 40 40 39
30 30 32 32 31 31 30 32 32 32 33 33 34 35 35 35 34 34 34 35 35 35
30 29 29 29 29 30 29 28 28 30 31 32 32 34 34 32 31 31 30 31 32 32
31 30 30 30 29 29 29 27 27 27 28 30 30 33 32 31 30 29 28 29 30 30
32 32 32 32 32 31 30 29 27 26 26 27 28 29 30 30 29 28 27 26 27 28

GFSNIL_sfc_dewp_111.txt.gz
Dewpoint
41 44 46 50 53 57 60 62 65 64 65 65 65 65 66 65 64 64 64 64 63 60
41 43 45 48 53 56 61 62 65 65 64 64 64 64 65 65 65 64 64 65 64 62
40 43 45 47 50 57 61 62 64 65 64 64 64 64 64 64 64 65 64 63 62 62
40 43 47 53 55 60 62 62 63 64 63 63 64 63 63 63 63 62 62 62 62 61
40 42 46 50 59 60 61 62 62 63 62 62 62 62 62 62 62 61 61 61 61 60
38 39 41 44 49 51 60 60 60 62 62 62 62 61 62 62 62 61 61 61 61 60
35 37 38 41 43 45 48 58 60 61 61 61 61 60 61 61 61 60 60 60 60 59
34 35 36 37 37 38 41 42 44 52 53 57 58 57 60 60 60 58 56 53 50 45
32 33 34 34 34 34 35 35 37 37 38 41 44 43 48 55 57 55 51 46 43 41
31 31 31 33 32 32 32 32 33 35 35 34 37 39 43 42 42 41 41 42 41 39
31 30 30 29 29 30 30 29 29 30 33 33 33 34 35 35 35 34 34 34 35 35
32 31 30 29 29 29 28 28 27 28 29 30 31 34 34 32 31 30 30 31 32 31
33 32 32 32 31 31 30 28 27 26 27 29 29 32 32 32 31 29 28 29 30 31
32 32 32 32 33 32 32 31 30 28 28 27 28 29 30 29 27 27 26 26 27 29

GFSNIL_sfc_dewp_114.txt.gz
Dewpoint
39 39 41 42 44 46 49 51 55 61 62 64 63 64 64 64 64 64 63 62 62 60
38 38 39 40 42 44 47 49 53 57 62 63 64 63 64 64 64 64 63 63 62 61
37 38 39 41 43 44 45 48 52 54 60 64 64 64 64 64 63 63 63 62 61 61
36 37 40 41 43 45 48 49 51 54 59 62 63 63 64 63 62 62 62 62 62 60
35 36 38 39 41 44 48 55 53 56 59 61 62 62 63 62 62 62 61 61 61 60
34 34 36 38 39 41 46 49 57 59 59 60 61 61 63 62 62 62 62 61 60 60
32 33 34 36 37 37 39 41 43 53 57 59 61 62 62 62 62 61 61 60 59 58
32 32 33 34 34 34 34 37 39 39 40 44 46 49 59 61 61 61 56 49 44 42
32 31 30 31 31 32 32 31 34 36 37 36 36 38 43 56 60 54 48 43 40 39
32 31 30 29 29 28 29 30 30 31 34 34 35 36 39 41 44 44 45 43 40 39
32 32 31 30 29 28 28 27 28 28 30 31 34 36 35 35 35 35 34 34 34 34
31 31 31 31 30 30 29 28 27 27 27 28 30 33 34 32 31 30 30 31 32 32
30 30 30 30 32 32 31 29 29 28 28 29 28 31 31 31 30 28 28 29 30 32
29 28 29 30 30 30 30 29 28 27 27 29 30 30 30 30 26 26 26 27 28 30

GFSNIL_sfc_dewp_117.txt.gz
Dewpoint
34 36 36 37 38 39 41 42 44 47 49 52 54 61 63 63 63 63 63 62 62 61
34 34 35 37 38 39 40 41 43 45 47 50 52 58 61 61 61 64 64 63 62 61
34 35 35 36 37 39 40 42 43 44 45 48 52 56 61 59 61 61 63 63 62 61
34 35 36 36 38 39 41 42 44 46 48 48 50 53 61 60 59 59 61 62 62 61
34 34 34 35 36 38 39 40 43 47 50 50 50 53 60 61 60 60 61 61 61 60
33 33 33 34 35 36 36 38 41 42 47 52 52 54 59 60 61 61 60 61 61 60
33 32 32 32 33 34 34 35 36 40 40 44 47 54 59 59 58 59 61 60 61 61
33 33 31 30 30 31 32 33 33 35 37 38 38 42 49 56 58 59 57 51 47 46
33 32 32 30 30 29 29 31 32 31 33 34 35 37 41 51 58 52 47 42 39 39
32 32 32 32 30 29 29 29 29 30 31 31 33 34 35 36 37 37 40 42 43 39
30 30 30 31 30 29 29 28 29 28 29 29 31 33 33 32 33 32 33 34 36 38
28 27 29 28 29 29 28 27 27 27 29 29 29 31 32 31 30 30 31 31 32 33
25 25 25 27 27 28 27 26 26 25 26 29 29 32 31 29 29 28 28 29 30 32
23 22 22 24 25 24 24 24 23 23 24 25 28 30 33 31 28 28 28 28 29 31

GFSNIL_sfc_dewp_120.txt.gz
Dewpoint
32 33 34 35 35 37 37 38 39 41 42 44 45 48 50 53 61 62 61 60 61 61
32 32 33 34 35 36 37 38 40 42 42 43 43 45 48 51 53 61 61 61 61 61
31 32 33 33 34 36 37 38 40 41 42 43 45 44 46 49 53 59 61 61 61 61
31 33 34 34 35 36 36 37 38 39 40 42 44 46 48 48 51 54 59 61 61 61
31 32 32 32 33 34 35 36 36 38 39 42 44 47 48 49 50 52 58 59 60 61
32 33 31 31 32 32 32 34 35 35 38 40 43 44 51 50 50 52 58 58 58 60
32 33 33 32 31 31 31 31 33 34 35 36 38 39 44 51 51 53 59 58 58 59
32 33 33 32 32 32 31 31 31 32 32 34 34 35 38 46 54 55 58 55 56 57
29 31 31 31 31 30 29 30 31 31 31 31 32 34 38 42 43 44 43 42 42 43
27 27 29 29 29 28 28 28 27 29 31 30 31 34 34 34 35 35 35 38 40 37
25 25 26 27 26 27 27 26 26 27 29 30 31 33 33 31 31 32 32 32 32 34
23 22 23 24 24 25 25 25 25 26 27 28 30 32 32 31 30 30 30 30 31 32
21 19 19 21 22 22 23 23 24 25 26 28 28 32 32 30 30 28 28 29 30 32
22 20 19 19 20 20 21 21 21 22 23 25 28 30 31 29 28 27 26 26 28 30

GFSNIL_sfc_dewp_123.txt.gz
Dewpoint
31 31 32 33 33 34 36 36 37 39 40 42 43 43 43 44 47 50 53 61 60 59
30 30 32 33 33 34 35 36 37 38 40 41 42 43 44 43 44 47 51 54 61 59
30 30 32 32 33 33 34 35 36 37 38 39 40 42 43 44 45 46 49 53 58 60
30 30 31 31 32 32 33 33 34 35 36 37 38 40 42 44 45 45 47 51 54 59
31 32 31 31 31 32 32 32 33 34 34 36 37 39 41 43 45 48 49 49 51 55
29 30 31 31 30 31 31 31 32 32 33 33 35 36 38 40 42 45 49 50 51 53
28 29 29 30 29 29 29 29 30 31 32 32 33 34 35 37 40 43 51 51 52 53
27 27 28 28 29 29 29 28 28 29 31 31 32 33 34 38 40 43 51 51 49 47
26 26 26 27 27 27 27 27 27 28 30 30 31 34 34 35 38 38 40 40 39 39
24 24 24 25 24 24 24 25 26 27 29 29 31 33 33 32 32 32 33 33 34 34
21 21 21 22 22 23 24 24 25 25 27 28 30 32 33 33 31 30 31 31 31 32
20 19 19 19 20 21 22 23 24 25 25 27 28 32 31 30 29 28 29 30 31 30
21 19 19 19 19 20 21 22 24 23 24 26 25 31 30 28 27 26 26 27 29 31
21 21 20 21 21 20 20 21 22 22 22 22 23 24 27 27 25 25 24 24 26 28

GFSNIL_sfc_dewp_126.txt.gz
Dewpoint
30 31 31 31 31 32 34 34 35 37 39 39 41 42 43 44 44 45 46 47 50 56
30 30 30 30 31 32 33 33 34 35 36 38 39 40 41 42 44 44 45 46 49 51
31 31 31 30 30 31 31 32 33 34 35 36 37 38 39 40 43 44 45 45 47 50
31 30 32 31 30 31 31 31 32 33 34 35 35 37 38 40 41 43 44 46 47 48
30 30 29 30 30 30 30 30 31 32 32 33 33 34 36 37 38 40 43 45 45 47
27 28 27 29 29 29 29 29 29 30 31 31 32 33 34 35 35 37 40 44 48 48
27 27 28 28 28 28 27 27 28 29 31 31 32 32 33 34 36 36 38 42 44 47
27 27 27 26 27 27 26 27 28 28 29 30 31 32 33 33 35 37 40 41 44 45
24 25 24 25 25 25 25 26 27 27 28 29 30 32 33 32 32 32 33 35 35 36
22 21 21 22 22 22 24 25 25 25 26 26 29 31 31 31 30 30 31 31 32 33
20 20 20 20 20 20 22 23 23 23 24 24 28 31 30 30 28 28 29 30 31 31
20 20 20 20 19 20 21 22 22 22 22 23 24 29 29 26 26 26 26 27 29 29
21 20 19 20 20 20 20 21 22 21 22 23 22 25 26 24 23 22 24 25 26 29
21 20 20 21 21 20 19 19 20 20 21 21 22 21 23 23 21 20 21 21 22 25

GFSNIL_sfc_dewp_129.txt.gz
Dewpoint
32 31 31 31 30 31 32 32 34 34 35 36 37 39 40 41 43 44 44 44 46 48
30 30 30 31 31 30 32 31 32 33 34 35 36 37 39 39 41 43 44 46 46 46
29 30 29 30 30 29 30 30 31 32 33 34 35 35 36 37 39 41 43 44 46 46
28 29 28 29 29 29 29 29 30 30 31 32 33 33 34 35 36 39 41 43 44 46
28 27 27 27 27 28 28 29 29 30 31 30 31 32 32 33 34 35 37 39 42 45
27 28 27 27 27 27 27 27 28 28 29 30 32 32 32 33 34 35 36 37 39 42
26 27 28 28 28 28 27 27 27 28 29 30 32 31 32 32 34 34 36 39 39 40
25 25 26 26 27 27 28 27 27 28 28 30 31 31 31 30 31 32 33 36 37 39
23 23 23 24 25 25 26 27 27 27 27 28 30 31 31 30 29 29 30 30 32 32
23 23 24 23 23 24 26 26 25 25 26 26 29 30 30 29 29 27 27 28 29 29
23 23 23 23 23 24 26 25 25 25 25 24 26 27 28 27 27 26 26 27 27 28
23 21 22 22 22 23 23 24 25 24 23 23 24 25 24 24 25 24 24 25 27 27
23 22 22 23 22 21 22 22 23 23 22 22 23 23 23 22 22 21 22 22 24 26
22 22 23 23 22 21 21 21 21 21 21 21 21 21 21 21 21 21 20 20 20 22

GFSNIL_sfc_dewp_132.txt.gz
Dewpoint
32 31 31 32 32 32 32 32 34 34 35 36 37 37 38 39 40 41 43 43 44 44
31 31 30 31 31 30 31 30 32 33 33 34 35 36 36 37 38 39 41 42 44 44
30 30 30 30 30 30 30 30 31 31 31 32 32 33 34 35 36 37 38 39 42 44
30 31 30 29 29 29 30 29 29 30 30 30 30 31 32 33 33 35 36 39 40 42
31 30 30 29 29 30 28 29 28 29 29 29 29 30 30 30 33 34 35 36 37 38
30 29 29 29 29 29 28 28 28 28 28 30 30 28 30 30 30 31 33 35 37 37
27 28 28 28 29 29 28 28 27 28 28 30 29 28 29 28 28 28 30 33 34 38
27 26 27 27 27 28 28 27 27 27 27 28 28 30 29 29 28 28 28 30 31 33
27 27 27 27 27 28 27 27 28 27 26 27 28 29 29 29 29 28 27 27 28 30
26 25 26 26 26 27 28 28 26 27 28 28 29 25 27 28 29 27 26 27 27 27
24 24 25 24 25 26 29 27 26 25 26 26 27 24 24 24 26 26 25 26 26 27
24 23 24 23 24 26 26 26 24 24 23 23 24 22 23 24 25 24 23 24 25 25
24 24 23 24 24 26 26 25 25 23 23 21 23 20 20 21 24 22 22 22 22 22
25 24 25 25 26 25 25 25 23 23 23 23 22 22 18 18 21 21 19 20 19 21

GFSNIL_sfc_dewp_135.txt.gz
Dewpoint
34 32 32 32 32 31 31 31 33 33 33 34 34 36 36 37 38 38 41 40 42 42
33 33 32 32 31 31 31 30 31 31 32 32 33 33 35 35 36 36 38 39 40 40
33 32 32 31 31 30 31 30 29 30 30 30 31 32 32 33 33 35 36 36 38 39
33 32 32 31 30 30 30 30 29 29 29 29 30 30 30 30 31 32 33 35 36 37
33 31 31 30 30 31 30 29 29 29 29 29 30 29 29 30 29 29 29 31 33 35
29 29 29 29 30 30 29 28 28 28 28 28 29 28 28 29 28 28 29 29 30 33
27 27 27 27 28 28 27 26 26 27 27 28 27 27 27 28 27 26 27 29 29 31
28 27 27 27 28 28 27 26 25 25 25 26 25 27 27 28 27 26 25 27 28 30
27 27 28 28 28 28 27 27 27 26 26 25 23 24 25 27 27 26 25 26 27 28
27 27 27 27 27 28 28 27 26 27 27 27 26 22 24 24 27 26 25 25 25 26
25 26 26 26 27 29 31 28 27 25 25 25 24 21 22 23 26 25 24 23 24 24
26 25 25 25 26 28 29 29 27 26 24 24 24 20 20 23 24 23 22 22 22 22
26 25 25 26 26 29 31 27 28 27 25 22 23 20 19 21 25 22 21 21 21 20
26 26 28 28 30 29 28 30 27 26 25 24 22 22 19 18 21 22 21 19 20 20